HAZ7348 ROAH-ZSPD

Flight info

Callsign HAZ7348
Flight time 1h 41m
Altitude 39000
Route ESKOB DCT ADDAN DCT CHERY DCT ONC Y579 CHAMP/N0489F410 Y579 MELEN/N0485F400 DCT AKVAS DCT MIKES DCT APITO/K0895F400 A326 AKARA A593 DUMET DUM82A
Aircraft A359/H-SDE2E3GHIJ3J4J5LM1ORWXY/LB1D1

Departure

Time 2026-05-06 12:19
Airport Naha International Airport (ROAH)

Arrival

Time 2026-05-06 14:00
Airport Shanghai Pudong International Airport (ZSPD)
Time Latitude Longitude Altitude Speed Heading
2026-05-06 11:53 26.21335 127.64932 28 ft 0 kts 87°
2026-05-06 12:11 26.21335 127.64929 28 ft 2 kts 87°
2026-05-06 12:11 26.21334 127.64900 13 ft 4 kts 87°
2026-05-06 12:12 26.21333 127.64870 28 ft 4 kts 87°
2026-05-06 12:12 26.21332 127.64840 28 ft 4 kts 87°
2026-05-06 12:12 26.21330 127.64810 28 ft 4 kts 87°
2026-05-06 12:12 26.21329 127.64785 28 ft 4 kts 89°
2026-05-06 12:13 26.21332 127.64759 27 ft 4 kts 118°
2026-05-06 12:13 26.21347 127.64737 25 ft 4 kts 138°
2026-05-06 12:13 26.21362 127.64722 24 ft 0 kts 133°
2026-05-06 12:14 26.21362 127.64721 24 ft 0 kts 133°
2026-05-06 12:16 26.21358 127.64726 24 ft 2 kts 132°
2026-05-06 12:16 26.21341 127.64739 25 ft 2 kts 166°
2026-05-06 12:17 26.21302 127.64740 27 ft 10 kts 178°
2026-05-06 12:17 26.21212 127.64745 27 ft 16 kts 177°
2026-05-06 12:17 26.21078 127.64751 27 ft 22 kts 179°
2026-05-06 12:17 26.20943 127.64726 27 ft 18 kts 201°
2026-05-06 12:18 26.20899 127.64598 25 ft 20 kts 265°
2026-05-06 12:18 26.20822 127.64527 26 ft 14 kts 176°
2026-05-06 12:18 26.20609 127.64539 28 ft 64 kts 177°
2026-05-06 12:18 26.19906 127.64572 22 ft 135 kts 178°
2026-05-06 12:19 26.18823 127.64619 316 ft 169 kts 177°
2026-05-06 12:19 26.17632 127.64664 1155 ft 166 kts 176°
2026-05-06 12:19 26.16511 127.64727 2041 ft 163 kts 176°
2026-05-06 12:19 26.15356 127.64800 2728 ft 165 kts 176°
2026-05-06 12:20 26.14216 127.64868 3446 ft 162 kts 178°
2026-05-06 12:20 26.13055 127.64930 3862 ft 180 kts 179°
2026-05-06 12:20 26.11690 127.64995 4142 ft 210 kts 180°
2026-05-06 12:20 26.10155 127.65063 4486 ft 236 kts 180°
2026-05-06 12:21 26.08423 127.65143 5011 ft 254 kts 180°
2026-05-06 12:21 26.06649 127.65216 5776 ft 261 kts 180°
2026-05-06 12:21 26.04823 127.65309 6652 ft 266 kts 179°
2026-05-06 12:21 26.02996 127.65771 7524 ft 276 kts 158°
2026-05-06 12:22 26.01511 127.67163 8443 ft 290 kts 128°
2026-05-06 12:22 26.00809 127.69292 9366 ft 302 kts 98°
2026-05-06 12:22 26.00831 127.71635 10274 ft 308 kts 87°
2026-05-06 12:22 26.01271 127.73993 11073 ft 316 kts 70°
2026-05-06 12:23 26.02391 127.76108 11912 ft 320 kts 52°
2026-05-06 12:23 26.03821 127.78051 12641 ft 332 kts 49°
2026-05-06 12:23 26.05360 127.80078 13062 ft 354 kts 49°
2026-05-06 12:23 26.06980 127.82235 13476 ft 373 kts 50°
2026-05-06 12:24 26.08674 127.84515 13882 ft 390 kts 50°
2026-05-06 12:24 26.10424 127.86877 14359 ft 401 kts 50°
2026-05-06 12:24 26.12206 127.89298 14964 ft 407 kts 50°
2026-05-06 12:24 26.14021 127.91740 15603 ft 411 kts 47°
2026-05-06 12:25 26.16126 127.93885 16236 ft 412 kts 33°
2026-05-06 12:25 26.18669 127.95321 16894 ft 410 kts 14°
2026-05-06 12:25 26.21451 127.95933 17591 ft 408 kts
2026-05-06 12:25 26.24281 127.96150 18293 ft 408 kts 358°
2026-05-06 12:26 26.27129 127.96160 18906 ft 410 kts 355°
2026-05-06 12:26 26.29985 127.96081 19518 ft 412 kts 354°
2026-05-06 12:26 26.32863 127.95983 20167 ft 415 kts 354°
2026-05-06 12:26 26.35761 127.95905 20814 ft 418 kts 355°
2026-05-06 12:27 26.38640 127.95857 21461 ft 421 kts 356°
2026-05-06 12:27 26.41579 127.95836 22102 ft 424 kts 356°
2026-05-06 12:27 26.44540 127.95832 22743 ft 427 kts 356°
2026-05-06 12:27 26.47518 127.95839 23389 ft 430 kts 356°
2026-05-06 12:28 26.50531 127.95850 24007 ft 433 kts 357°
2026-05-06 12:28 26.53545 127.95862 24602 ft 435 kts 357°
2026-05-06 12:28 26.56577 127.95874 25233 ft 436 kts 357°
2026-05-06 12:28 26.59615 127.95884 25858 ft 437 kts 357°
2026-05-06 12:29 26.62664 127.95893 26470 ft 439 kts 357°
2026-05-06 12:29 26.65724 127.95900 27063 ft 441 kts 357°
2026-05-06 12:29 26.68804 127.95908 27654 ft 444 kts 357°
2026-05-06 12:29 26.71902 127.95915 28243 ft 446 kts 357°
2026-05-06 12:30 26.75009 127.95922 28811 ft 448 kts 357°
2026-05-06 12:30 26.78136 127.95929 29360 ft 450 kts 357°
2026-05-06 12:30 26.81276 127.95936 29897 ft 453 kts 357°
2026-05-06 12:30 26.84431 127.95943 30385 ft 455 kts 357°
2026-05-06 12:31 26.87564 127.95951 30775 ft 458 kts 357°
2026-05-06 12:31 26.90762 127.95958 31141 ft 461 kts 358°
2026-05-06 12:31 26.93981 127.95965 31506 ft 464 kts 358°
2026-05-06 12:31 26.97221 127.95973 31873 ft 467 kts 358°
2026-05-06 12:32 27.00485 127.95980 32221 ft 470 kts 358°
2026-05-06 12:32 27.03762 127.95988 32549 ft 473 kts 358°
2026-05-06 12:32 27.07068 127.95996 32871 ft 476 kts 358°
2026-05-06 12:32 27.10381 127.96004 33204 ft 478 kts 358°
2026-05-06 12:33 27.12627 127.96009 33520 ft 477 kts 358°
2026-05-06 12:33 27.17015 127.96021 34174 ft 475 kts 358°
2026-05-06 12:33 27.19248 127.96027 34428 ft 475 kts 358°
2026-05-06 12:33 27.22514 127.96035 34751 ft 476 kts 358°
2026-05-06 12:34 27.25865 127.96043 35091 ft 476 kts 358°
2026-05-06 12:34 27.29182 127.96051 35420 ft 477 kts 358°
2026-05-06 12:34 27.32453 127.96059 35737 ft 477 kts 358°
2026-05-06 12:34 27.35771 127.96066 36064 ft 477 kts 358°
2026-05-06 12:35 27.39093 127.96074 36395 ft 478 kts 358°
2026-05-06 12:35 27.42425 127.96082 36714 ft 478 kts 358°
2026-05-06 12:35 27.45755 127.96090 37026 ft 479 kts 358°
2026-05-06 12:35 27.49080 127.96098 37346 ft 479 kts 358°
2026-05-06 12:36 27.52415 127.96106 37663 ft 479 kts 358°
2026-05-06 12:36 27.55753 127.96114 37959 ft 479 kts 358°
2026-05-06 12:36 27.59090 127.96122 38249 ft 480 kts 358°
2026-05-06 12:36 27.62427 127.96130 38558 ft 480 kts 358°
2026-05-06 12:37 27.65764 127.96138 38825 ft 480 kts 358°
2026-05-06 12:37 27.69103 127.96145 39057 ft 480 kts 358°
2026-05-06 12:37 27.72442 127.96153 39298 ft 480 kts 357°
2026-05-06 12:37 27.75784 127.96161 39531 ft 480 kts 357°
2026-05-06 12:38 27.79115 127.96169 39768 ft 480 kts 357°
2026-05-06 12:38 27.82452 127.96177 39976 ft 480 kts 357°
2026-05-06 12:38 27.89142 127.96192 40043 ft 480 kts 357°
2026-05-06 12:39 27.95807 127.96208 40044 ft 479 kts 357°
2026-05-06 12:39 28.02478 127.96224 40046 ft 479 kts 357°
2026-05-06 12:40 28.09138 127.96240 40046 ft 479 kts 357°
2026-05-06 12:40 28.15748 127.96256 40045 ft 479 kts 357°
2026-05-06 12:41 28.22417 127.96272 40044 ft 479 kts 357°
2026-05-06 12:41 28.29088 127.96288 40043 ft 479 kts 357°
2026-05-06 12:42 28.35746 127.96304 40044 ft 479 kts 358°
2026-05-06 12:42 28.42405 127.96321 40041 ft 479 kts 358°
2026-05-06 12:43 28.49071 127.96337 40047 ft 479 kts 358°
2026-05-06 12:43 28.55727 127.96353 40047 ft 478 kts 358°
2026-05-06 12:44 28.62383 127.96369 40043 ft 478 kts 358°
2026-05-06 12:44 28.69034 127.96385 40043 ft 478 kts 358°
2026-05-06 12:45 28.75674 127.96401 40042 ft 477 kts 358°
2026-05-06 12:46 28.85618 127.96426 40045 ft 476 kts 358°
2026-05-06 12:46 28.92253 127.96442 40045 ft 476 kts 358°
2026-05-06 12:47 28.98870 127.96458 40047 ft 475 kts 358°
2026-05-06 12:47 29.05474 127.96474 40046 ft 474 kts 358°
2026-05-06 12:48 29.12077 127.96490 40048 ft 474 kts 358°
2026-05-06 12:48 29.18616 127.96507 40048 ft 473 kts 358°
2026-05-06 12:49 29.25195 127.96523 40049 ft 472 kts 358°
2026-05-06 12:49 29.31769 127.96539 40049 ft 472 kts 358°
2026-05-06 12:50 29.38303 127.96149 40047 ft 468 kts 348°
2026-05-06 12:50 29.44441 127.93859 40049 ft 464 kts 332°
2026-05-06 12:51 29.49608 127.89505 40047 ft 462 kts 314°
2026-05-06 12:51 29.53352 127.83564 40049 ft 462 kts 297°
2026-05-06 12:52 29.55299 127.76516 40049 ft 465 kts 283°
2026-05-06 12:52 29.56250 127.69163 40047 ft 466 kts 279°
2026-05-06 12:53 29.56996 127.61797 40046 ft 464 kts 279°
2026-05-06 12:53 29.57760 127.54438 40046 ft 463 kts 279°
2026-05-06 12:54 29.58521 127.47088 40045 ft 463 kts 277°
2026-05-06 12:54 29.58734 127.39682 40044 ft 464 kts 274°
2026-05-06 12:55 29.58776 127.32319 40045 ft 463 kts 273°
2026-05-06 12:55 29.58782 127.24930 40048 ft 463 kts 273°
2026-05-06 12:56 29.58800 127.17533 40047 ft 463 kts 273°
2026-05-06 12:56 29.58827 127.10136 40047 ft 463 kts 274°
2026-05-06 12:57 29.58853 127.02742 40048 ft 463 kts 274°
2026-05-06 12:57 29.58875 126.95335 40047 ft 463 kts 274°
2026-05-06 12:58 29.58892 126.87939 40044 ft 463 kts 274°
2026-05-06 12:58 29.58905 126.80546 40043 ft 463 kts 274°
2026-05-06 12:59 29.58914 126.73152 40047 ft 462 kts 274°
2026-05-06 12:59 29.58920 126.65763 40051 ft 462 kts 274°
2026-05-06 13:00 29.58921 126.58389 40049 ft 462 kts 274°
2026-05-06 13:00 29.58917 126.51017 40041 ft 461 kts 274°
2026-05-06 13:01 29.58910 126.43651 40047 ft 461 kts 273°
2026-05-06 13:01 29.58899 126.36291 40046 ft 460 kts 273°
2026-05-06 13:02 29.58883 126.28940 40048 ft 460 kts 273°
2026-05-06 13:02 29.58864 126.21598 40050 ft 459 kts 273°
2026-05-06 13:03 29.58840 126.14262 40049 ft 459 kts 273°
2026-05-06 13:03 29.58812 126.06931 40049 ft 459 kts 273°
2026-05-06 13:04 29.58781 125.99604 40042 ft 458 kts 273°
2026-05-06 13:04 29.58745 125.92285 40047 ft 458 kts 273°
2026-05-06 13:05 29.58710 125.84972 40063 ft 458 kts 273°
2026-05-06 13:05 29.58669 125.77658 40053 ft 458 kts 273°
2026-05-06 13:06 29.58648 125.70338 40049 ft 457 kts 273°
2026-05-06 13:06 29.58678 125.63038 40055 ft 457 kts 274°
2026-05-06 13:07 29.58712 125.55748 40050 ft 457 kts 273°
2026-05-06 13:07 29.58737 125.48452 40048 ft 456 kts 273°
2026-05-06 13:08 29.58754 125.41166 40053 ft 456 kts 273°
2026-05-06 13:08 29.58766 125.33887 40053 ft 455 kts 273°
2026-05-06 13:09 29.58774 125.26618 40045 ft 455 kts 273°
2026-05-06 13:09 29.58778 125.19358 40047 ft 455 kts 273°
2026-05-06 13:10 29.58778 125.12094 40056 ft 454 kts 273°
2026-05-06 13:10 29.58775 125.04849 40056 ft 454 kts 272°
2026-05-06 13:11 29.58767 124.97591 40047 ft 454 kts 272°
2026-05-06 13:11 29.58755 124.90344 40046 ft 453 kts 272°
2026-05-06 13:12 29.58740 124.83291 40049 ft 453 kts 272°
2026-05-06 13:12 29.58721 124.76059 40046 ft 453 kts 272°
2026-05-06 13:13 29.58698 124.68824 40047 ft 453 kts 272°
2026-05-06 13:13 29.58671 124.61589 40047 ft 453 kts 272°
2026-05-06 13:14 29.58640 124.54355 40050 ft 452 kts 272°
2026-05-06 13:14 29.58605 124.47133 40044 ft 452 kts 272°
2026-05-06 13:15 29.58567 124.39918 40046 ft 452 kts 272°
2026-05-06 13:15 29.58524 124.32701 40045 ft 452 kts 272°
2026-05-06 13:16 29.58478 124.25489 40047 ft 451 kts 272°
2026-05-06 13:16 29.58412 124.18300 39549 ft 448 kts 271°
2026-05-06 13:16 29.57991 124.14741 38847 ft 455 kts 258°
2026-05-06 13:17 29.56798 124.11338 38004 ft 464 kts 246°
2026-05-06 13:17 29.55225 124.08081 37196 ft 468 kts 244°
2026-05-06 13:17 29.53586 124.04847 36429 ft 470 kts 244°
2026-05-06 13:17 29.51938 124.01595 35630 ft 472 kts 244°
2026-05-06 13:18 29.50295 123.98327 34833 ft 474 kts 244°
2026-05-06 13:18 29.48648 123.95027 34031 ft 477 kts 243°
2026-05-06 13:18 29.47005 123.91709 33119 ft 480 kts 244°
2026-05-06 13:18 29.45352 123.88374 32486 ft 482 kts 244°
2026-05-06 13:19 29.43679 123.85016 32209 ft 487 kts 244°
2026-05-06 13:19 29.40311 123.78273 32150 ft 488 kts 244°
2026-05-06 13:20 29.36940 123.71523 32149 ft 487 kts 244°
2026-05-06 13:20 29.33600 123.64829 32147 ft 486 kts 244°
2026-05-06 13:21 29.30252 123.58112 32149 ft 485 kts 244°
2026-05-06 13:21 29.28074 123.50956 32148 ft 474 kts 268°
2026-05-06 13:21 29.28256 123.47214 32150 ft 471 kts 282°
2026-05-06 13:22 29.29194 123.43647 31934 ft 463 kts 291°
2026-05-06 13:22 29.30418 123.40248 31140 ft 462 kts 293°
2026-05-06 13:22 29.31659 123.36852 30299 ft 462 kts 291°
2026-05-06 13:22 29.32740 123.33389 29394 ft 462 kts 289°
2026-05-06 13:23 29.33772 123.29906 28496 ft 461 kts 289°
2026-05-06 13:23 29.34790 123.26434 27679 ft 459 kts 288°
2026-05-06 13:23 29.35802 123.22974 26905 ft 456 kts 288°
2026-05-06 13:23 29.36805 123.19541 26216 ft 452 kts 288°
2026-05-06 13:24 29.37800 123.16130 25801 ft 450 kts 288°
2026-05-06 13:24 29.38792 123.12728 25666 ft 451 kts 288°
2026-05-06 13:24 29.39784 123.09323 25646 ft 451 kts 288°
2026-05-06 13:24 29.40777 123.05909 25560 ft 448 kts 288°
2026-05-06 13:25 29.41753 123.02554 24933 ft 443 kts 288°
2026-05-06 13:25 29.42725 122.99205 24146 ft 443 kts 288°
2026-05-06 13:25 29.43697 122.95854 23369 ft 442 kts 288°
2026-05-06 13:25 29.44663 122.92522 22546 ft 439 kts 288°
2026-05-06 13:26 29.45299 122.90324 22044 ft 437 kts 288°
2026-05-06 13:26 29.46252 122.87029 21345 ft 433 kts 288°
2026-05-06 13:26 29.47194 122.83768 20908 ft 430 kts 288°
2026-05-06 13:26 29.48135 122.80507 20757 ft 431 kts 288°
2026-05-06 13:27 29.49077 122.77240 20744 ft 431 kts 288°
2026-05-06 13:27 29.50017 122.73980 20751 ft 430 kts 288°
2026-05-06 13:27 29.50954 122.70722 20752 ft 430 kts 288°
2026-05-06 13:27 29.51891 122.67461 20747 ft 430 kts 288°
2026-05-06 13:28 29.52827 122.64204 20753 ft 429 kts 288°
2026-05-06 13:28 29.53761 122.60948 20749 ft 429 kts 287°
2026-05-06 13:28 29.54693 122.57694 20743 ft 429 kts 287°
2026-05-06 13:28 29.55613 122.54485 20312 ft 420 kts 287°
2026-05-06 13:29 29.56526 122.51291 19486 ft 421 kts 287°
2026-05-06 13:29 29.57437 122.48101 18759 ft 419 kts 287°
2026-05-06 13:29 29.58342 122.44929 18030 ft 416 kts 287°
2026-05-06 13:29 29.59240 122.41781 17309 ft 413 kts 287°
2026-05-06 13:30 29.60127 122.38668 16874 ft 409 kts 287°
2026-05-06 13:30 29.61009 122.35568 16741 ft 410 kts 287°
2026-05-06 13:30 29.61896 122.32448 16742 ft 410 kts 287°
2026-05-06 13:30 29.62778 122.29340 16730 ft 409 kts 287°
2026-05-06 13:31 29.63659 122.26234 16733 ft 409 kts 287°
2026-05-06 13:31 29.64540 122.23127 16738 ft 409 kts 287°
2026-05-06 13:31 29.65420 122.20019 16730 ft 408 kts 287°
2026-05-06 13:31 29.66298 122.16914 16736 ft 408 kts 287°
2026-05-06 13:32 29.67175 122.13811 16734 ft 408 kts 287°
2026-05-06 13:32 29.68051 122.10706 16731 ft 408 kts 287°
2026-05-06 13:32 29.68927 122.07603 16722 ft 408 kts 287°
2026-05-06 13:32 29.69796 122.04519 16511 ft 401 kts 287°
2026-05-06 13:33 29.70651 122.01482 15712 ft 399 kts 287°
2026-05-06 13:33 29.71507 121.98436 14907 ft 400 kts 287°
2026-05-06 13:33 29.72359 121.95402 14285 ft 397 kts 287°
2026-05-06 13:33 29.73172 121.92504 13946 ft 396 kts 287°
2026-05-06 13:34 29.74029 121.89446 13822 ft 397 kts 287°
2026-05-06 13:34 29.75046 121.86488 13815 ft 398 kts 296°
2026-05-06 13:34 29.76536 121.83811 13494 ft 394 kts 308°
2026-05-06 13:34 29.78555 121.81699 12687 ft 395 kts 326°
2026-05-06 13:35 29.81051 121.80411 11927 ft 394 kts 343°
2026-05-06 13:35 29.83723 121.79980 11228 ft 392 kts 356°
2026-05-06 13:35 29.86436 121.79924 10559 ft 388 kts 358°
2026-05-06 13:35 29.89112 121.79896 10065 ft 383 kts 358°
2026-05-06 13:36 29.91766 121.79845 9840 ft 375 kts 358°
2026-05-06 13:36 29.94379 121.79776 9802 ft 380 kts 357°
2026-05-06 13:36 29.97045 121.79693 9799 ft 386 kts 357°
2026-05-06 13:36 29.99740 121.79602 9797 ft 388 kts 357°
2026-05-06 13:37 30.02439 121.79508 9798 ft 388 kts 357°
2026-05-06 13:37 30.05135 121.79413 9799 ft 388 kts 357°
2026-05-06 13:37 30.07836 121.79315 9800 ft 388 kts 357°
2026-05-06 13:37 30.10527 121.79217 9800 ft 388 kts 357°
2026-05-06 13:38 30.13227 121.79116 9803 ft 388 kts 356°
2026-05-06 13:38 30.15921 121.79016 9801 ft 388 kts 356°
2026-05-06 13:38 30.18621 121.78916 9801 ft 388 kts 356°
2026-05-06 13:38 30.21317 121.78819 9801 ft 388 kts 356°
2026-05-06 13:39 30.24014 121.78720 9805 ft 388 kts 356°
2026-05-06 13:39 30.26709 121.78620 9801 ft 388 kts 356°
2026-05-06 13:39 30.29409 121.78522 9805 ft 387 kts 356°
2026-05-06 13:39 30.32103 121.78425 9804 ft 388 kts 356°
2026-05-06 13:40 30.34805 121.78326 9805 ft 388 kts 356°
2026-05-06 13:40 30.37501 121.78224 9803 ft 388 kts 356°
2026-05-06 13:40 30.40193 121.78120 9803 ft 388 kts 356°
2026-05-06 13:40 30.42892 121.78021 9802 ft 388 kts 356°
2026-05-06 13:41 30.45591 121.77920 9801 ft 388 kts 356°
2026-05-06 13:41 30.48290 121.77824 9799 ft 388 kts 356°
2026-05-06 13:41 30.50985 121.77728 9801 ft 387 kts 356°
2026-05-06 13:41 30.53678 121.77625 9799 ft 387 kts 356°
2026-05-06 13:42 30.56335 121.77545 9797 ft 388 kts 359°
2026-05-06 13:42 30.59026 121.77955 9798 ft 391 kts 10°
2026-05-06 13:42 30.61681 121.78653 9803 ft 391 kts 12°
2026-05-06 13:42 30.64327 121.79385 9802 ft 392 kts 12°
2026-05-06 13:43 30.66976 121.80127 9801 ft 391 kts 13°
2026-05-06 13:43 30.69502 121.81308 9799 ft 394 kts 29°
2026-05-06 13:43 30.71661 121.83270 9811 ft 396 kts 41°
2026-05-06 13:43 30.73629 121.85480 9555 ft 387 kts 43°
2026-05-06 13:44 30.75541 121.87665 8678 ft 386 kts 44°
2026-05-06 13:44 30.77482 121.89873 7824 ft 385 kts 44°
2026-05-06 13:44 30.79364 121.92002 7058 ft 382 kts 43°
2026-05-06 13:44 30.81380 121.93994 6393 ft 377 kts 34°
2026-05-06 13:45 30.83681 121.95397 6020 ft 374 kts 19°
2026-05-06 13:45 30.88731 121.96272 5913 ft 371 kts
2026-05-06 13:45 30.91311 121.96440 5910 ft 371 kts
2026-05-06 13:46 30.93895 121.96597 5910 ft 371 kts
2026-05-06 13:46 30.96471 121.96760 5907 ft 371 kts
2026-05-06 13:46 30.99045 121.96929 5907 ft 371 kts
2026-05-06 13:46 31.01622 121.97103 5902 ft 371 kts
2026-05-06 13:47 31.04197 121.97279 5900 ft 371 kts
2026-05-06 13:47 31.06778 121.97452 5894 ft 370 kts
2026-05-06 13:47 31.09284 121.97220 5427 ft 356 kts 345°
2026-05-06 13:47 31.11646 121.96391 4503 ft 356 kts 339°
2026-05-06 13:48 31.13990 121.95438 3689 ft 356 kts 339°
2026-05-06 13:48 31.16335 121.94497 3204 ft 357 kts 340°
2026-05-06 13:48 31.18697 121.93569 3017 ft 360 kts 340°
2026-05-06 13:48 31.21076 121.92648 2994 ft 360 kts 341°
2026-05-06 13:49 31.23430 121.91752 2989 ft 347 kts 341°
2026-05-06 13:49 31.25640 121.90919 2912 ft 323 kts 340°
2026-05-06 13:49 31.27716 121.90134 2797 ft 304 kts 340°
2026-05-06 13:49 31.29674 121.89386 2666 ft 288 kts 340°
2026-05-06 13:50 31.31538 121.88669 2533 ft 277 kts 340°
2026-05-06 13:50 31.33340 121.87976 2406 ft 267 kts 341°
2026-05-06 13:50 31.35065 121.87323 2281 ft 254 kts 341°
2026-05-06 13:50 31.36710 121.86701 2136 ft 244 kts 341°
2026-05-06 13:51 31.38299 121.86101 2029 ft 235 kts 341°
2026-05-06 13:51 31.39847 121.85515 1995 ft 233 kts 341°
2026-05-06 13:51 31.41400 121.84930 1996 ft 235 kts 341°
2026-05-06 13:51 31.42941 121.84293 1998 ft 236 kts 334°
2026-05-06 13:52 31.44176 121.83094 1994 ft 231 kts 299°
2026-05-06 13:52 31.44581 121.81340 2005 ft 220 kts 264°
2026-05-06 13:52 31.44361 121.79598 1989 ft 210 kts 254°
2026-05-06 13:52 31.44045 121.78002 1981 ft 193 kts 253°
2026-05-06 13:53 31.43742 121.76510 1988 ft 186 kts 252°
2026-05-06 13:53 31.43445 121.75036 1998 ft 186 kts 252°
2026-05-06 13:53 31.43085 121.73593 1992 ft 183 kts 242°
2026-05-06 13:53 31.42254 121.72558 1989 ft 174 kts 200°
2026-05-06 13:54 31.41069 121.72405 2001 ft 172 kts 175°
2026-05-06 13:54 31.39888 121.72657 1998 ft 173 kts 166°
2026-05-06 13:54 31.38724 121.73053 1995 ft 175 kts 163°
2026-05-06 13:54 31.37564 121.73479 1988 ft 175 kts 163°
2026-05-06 13:55 31.36409 121.73919 1993 ft 175 kts 162°
2026-05-06 13:55 31.35254 121.74360 1997 ft 174 kts 162°
2026-05-06 13:55 31.34100 121.74798 1993 ft 174 kts 162°
2026-05-06 13:55 31.32950 121.75227 1992 ft 174 kts 164°
2026-05-06 13:56 31.31797 121.75648 1991 ft 174 kts 164°
2026-05-06 13:56 31.30639 121.76070 1993 ft 175 kts 163°
2026-05-06 13:56 31.29485 121.76499 1992 ft 176 kts 164°
2026-05-06 13:56 31.28306 121.76940 1994 ft 176 kts 163°
2026-05-06 13:57 31.27143 121.77382 1990 ft 175 kts 162°
2026-05-06 13:57 31.25991 121.77830 1990 ft 174 kts 162°
2026-05-06 13:57 31.24843 121.78274 1824 ft 171 kts 163°
2026-05-06 13:57 31.23776 121.78678 1641 ft 157 kts 163°
2026-05-06 13:58 31.22771 121.79057 1410 ft 146 kts 162°
2026-05-06 13:58 31.21847 121.79407 1216 ft 134 kts 162°
2026-05-06 13:58 31.20999 121.79728 1047 ft 124 kts 161°
2026-05-06 13:58 31.20182 121.80037 890 ft 124 kts 161°
2026-05-06 13:59 31.19373 121.80346 729 ft 121 kts 161°
2026-05-06 13:59 31.18579 121.80645 576 ft 120 kts 161°
2026-05-06 13:59 31.17786 121.80948 414 ft 121 kts 160°
2026-05-06 13:59 31.16980 121.81254 261 ft 122 kts 160°
2026-05-06 14:00 31.16178 121.81557 97 ft 122 kts 160°
2026-05-06 14:00 31.15384 121.81860 30 ft 111 kts 161°
2026-05-06 14:00 31.14895 121.82044 27 ft 48 kts 162°
2026-05-06 14:00 31.14598 121.82153 27 ft 42 kts 162°
2026-05-06 14:01 31.14359 121.82175 29 ft 31 kts 189°
2026-05-06 14:01 31.14167 121.82135 29 ft 28 kts 190°
2026-05-06 14:01 31.13997 121.82170 29 ft 25 kts 159°
2026-05-06 14:01 31.13843 121.82231 29 ft 20 kts 161°
2026-05-06 14:02 31.13721 121.82276 29 ft 15 kts 167°
2026-05-06 14:02 31.13661 121.82216 29 ft 12 kts 251°
2026-05-06 14:02 31.13632 121.82108 29 ft 16 kts 252°
2026-05-06 14:02 31.13594 121.81975 28 ft 19 kts 251°
2026-05-06 14:03 31.13561 121.81857 28 ft 13 kts 252°
2026-05-06 14:03 31.13535 121.81765 29 ft 13 kts 252°
2026-05-06 14:03 31.13507 121.81661 29 ft 13 kts 252°
2026-05-06 14:03 31.13491 121.81582 28 ft 8 kts 277°
2026-05-06 14:04 31.13527 121.81529 29 ft 9 kts 325°
2026-05-06 14:04 31.13590 121.81502 29 ft 11 kts 342°
2026-05-06 14:04 31.13662 121.81475 29 ft 8 kts 336°
2026-05-06 14:04 31.13677 121.81426 29 ft 6 kts 261°
2026-05-06 14:05 31.13665 121.81368 29 ft 6 kts 252°
2026-05-06 14:05 31.13664 121.81366 29 ft 0 kts 252°